Olean, NY

8:58 PM EDT on March 29, 2017 (GMT -0400)
Cattaraugus County-Olean

Weather History for KOLE - February, 2013

Change the Weather History Date:

Saturday, February 16, 2013

  Actual Average (KBFD) Record (KBFD)
Temperature  
Mean Temperature 18 °F -  
Max Temperature 24 °F 31 °F 59 °F (1990)
Min Temperature 12 °F 13 °F -25 °F (2015)
Degree Days  
Heating Degree Days 47    
Moisture  
Dew Point 9 °F    
Average Humidity 71    
Maximum Humidity 93    
Minimum Humidity 43    
Precipitation  
Precipitation 0.00 in - - ()
Sea Level Pressure  
Sea Level Pressure 29.88 in    
Wind  
Wind Speed 3 mph (WNW)    
Max Wind Speed 9 mph    
Max Gust Speed -    
Visibility 9 miles    
Events Snow    
Averages and records for this station are not official NWS values.
T = Trace of Precipitation, MM = Missing Value Source: NWS Daily Summary

Daily Weather History Graph

Daily Weather History Graph

Search for Another Location

Airport or City:

Trip Planner

Search our weather history database for the weather conditions in past years. The results will help you decide how hot, cold, wet, or windy it might be!

Date:

Astronomy

Feb. 16, 2013 Rise Set
Actual Time 7:08 AM EST 5:47 PM EST
Civil Twilight 6:39 AM EST 6:16 PM EST
Nautical Twilight 6:06 AM EST 6:49 PM EST
Astronomical Twilight 5:34 AM EST 7:21 PM EST
Moon 10:11 AM EST (2/16) No Moon Set
Length of Visible Light 11h 36m
Length of Day
10h 39m
Waxing Crescent, 39% of the Moon is Illuminated
Feb 16
Waxing Crescent
Feb 17
First Quarter
Feb 25
Full
Mar 4
Last Quarter
Mar 11
New

Hourly Weather History & Observations

Time (EST) Temp. Windchill Dew Point Humidity Pressure Visibility Wind Dir Wind Speed Gust Speed Precip Events Conditions
12:15 AM 17.6 °F 10.7 °F 14.0 °F 86% 29.94 in 10.0 mi NW 4.6 mph - N/A   Overcast
12:35 AM 17.6 °F 12.3 °F 12.2 °F 79% 29.95 in 10.0 mi WNW 3.5 mph - N/A Snow Light Snow
12:55 AM 17.6 °F 12.3 °F 14.0 °F 86% 29.94 in 7.0 mi WNW 3.5 mph - N/A Snow Light Snow
1:15 AM 17.6 °F - 14.0 °F 86% 29.94 in 7.0 mi Calm Calm - N/A Snow Light Snow
1:35 AM 17.6 °F - 14.0 °F 86% 29.94 in 7.0 mi Calm Calm - N/A Snow Light Snow
1:55 AM 17.6 °F - 14.0 °F 86% 29.94 in 10.0 mi Calm Calm - N/A Snow Light Snow
2:15 AM 17.6 °F - 14.0 °F 86% 29.94 in 7.0 mi Calm Calm - N/A Snow Light Snow
2:35 AM 17.6 °F - 14.0 °F 86% 29.93 in 7.0 mi Calm Calm - N/A Snow Light Snow
2:55 AM 17.6 °F - 14.0 °F 86% 29.93 in 10.0 mi Calm Calm - N/A Snow Light Snow
3:15 AM 17.6 °F 12.3 °F 12.2 °F 79% 29.93 in 10.0 mi West 3.5 mph - N/A Snow Light Snow
3:35 AM 17.6 °F 12.3 °F 12.2 °F 79% 29.92 in 10.0 mi West 3.5 mph - N/A   Overcast
3:55 AM 17.6 °F - 12.2 °F 79% 29.92 in 10.0 mi Calm Calm - N/A   Overcast
4:15 AM 17.6 °F - 12.2 °F 79% 29.92 in 7.0 mi Calm Calm - N/A Snow Light Snow
4:35 AM 17.6 °F - 12.2 °F 79% 29.92 in 7.0 mi Calm Calm - N/A Snow Light Snow
4:55 AM 15.8 °F - 14.0 °F 93% 29.92 in 4.0 mi Calm Calm - N/A Snow Light Snow
5:15 AM 15.8 °F - 12.2 °F 86% 29.92 in 10.0 mi Calm Calm - N/A Snow Light Snow
5:35 AM 15.8 °F - 12.2 °F 86% 29.92 in 7.0 mi Calm Calm - N/A Snow Light Snow
6:35 AM 15.8 °F 10.2 °F 8.6 °F 73% 29.92 in 10.0 mi WNW 3.5 mph - N/A   Overcast
6:55 AM 14.0 °F - 8.6 °F 79% 29.92 in 10.0 mi Calm Calm - N/A Snow Light Snow
7:15 AM 14.0 °F - 8.6 °F 79% 29.92 in 10.0 mi Calm Calm - N/A   Scattered Clouds
7:35 AM 14.0 °F 8.2 °F 8.6 °F 79% 29.92 in 10.0 mi South 3.5 mph - N/A   Overcast
7:55 AM 14.0 °F 8.2 °F 10.4 °F 86% 29.92 in 10.0 mi South 3.5 mph - N/A   Overcast
8:15 AM 14.0 °F 8.2 °F 8.6 °F 79% 29.92 in 10.0 mi South 3.5 mph - N/A   Mostly Cloudy
8:35 AM 15.8 °F 10.2 °F 8.6 °F 73% 29.92 in 10.0 mi SSW 3.5 mph - N/A   Scattered Clouds
8:55 AM 17.6 °F 12.3 °F 8.6 °F 68% 29.92 in 10.0 mi SSW 3.5 mph - N/A   Clear
9:15 AM 17.6 °F - 6.8 °F 63% 29.92 in 10.0 mi Calm Calm - N/A   Scattered Clouds
9:35 AM 21.2 °F - 8.6 °F 58% 29.92 in 10.0 mi Calm Calm - N/A   Mostly Cloudy
9:55 AM 19.4 °F - 5.0 °F 54% 29.91 in 10.0 mi Calm Calm - N/A   Overcast
10:15 AM 21.2 °F - 5.0 °F 50% 29.90 in 10.0 mi Calm Calm - N/A   Mostly Cloudy
10:35 AM 21.2 °F - 6.8 °F 54% 29.90 in 10.0 mi Calm Calm - N/A   Scattered Clouds
1:15 PM 23.0 °F 17.0 °F 5.0 °F 46% 29.85 in 10.0 mi WNW 4.6 mph - N/A   Overcast
1:35 PM 23.0 °F 17.0 °F 5.0 °F 46% 29.84 in 10.0 mi NW 4.6 mph - N/A   Overcast
1:55 PM 24.8 °F 16.9 °F 5.0 °F 43% 29.83 in 10.0 mi WNW 6.9 mph - N/A   Overcast
2:15 PM 23.0 °F - 5.0 °F 46% 29.83 in 10.0 mi Calm Calm - N/A   Overcast
2:35 PM 23.0 °F 17.0 °F 5.0 °F 46% 29.83 in 10.0 mi NW 4.6 mph - N/A   Overcast
2:55 PM 23.0 °F 18.4 °F 8.6 °F 54% 29.82 in 10.0 mi West 3.5 mph - N/A   Overcast
3:15 PM 23.0 °F 18.4 °F 8.6 °F 54% 29.82 in 10.0 mi West 3.5 mph - N/A   Overcast
3:35 PM 23.0 °F - 8.6 °F 54% 29.83 in 10.0 mi Calm Calm - N/A   Overcast
3:55 PM 23.0 °F 15.8 °F 6.8 °F 50% 29.82 in 10.0 mi NW 5.8 mph - N/A   Overcast
4:15 PM 23.0 °F 14.7 °F 6.8 °F 50% 29.83 in 10.0 mi WNW 6.9 mph - N/A   Overcast
4:55 PM 21.2 °F 14.9 °F 6.8 °F 54% 29.83 in 10.0 mi WNW 4.6 mph - N/A   Overcast
5:15 PM 21.2 °F 12.6 °F 14.0 °F 74% 29.84 in 5.0 mi NW 6.9 mph - N/A Snow Light Snow
5:35 PM 19.4 °F 10.4 °F 15.8 °F 86% 29.85 in 2.5 mi WNW 6.9 mph - N/A Snow Light Snow
5:55 PM 19.4 °F 10.4 °F 14.0 °F 80% 29.85 in 4.0 mi WNW 6.9 mph - N/A Snow Light Snow
6:15 PM 19.4 °F 12.8 °F 14.0 °F 80% 29.85 in 7.0 mi WNW 4.6 mph - N/A Snow Light Snow
6:55 PM 17.6 °F 8.2 °F 10.4 °F 73% 29.86 in 10.0 mi WNW 6.9 mph - N/A   Overcast
7:15 PM 17.6 °F 7.3 °F 8.6 °F 68% 29.86 in 10.0 mi WNW 8.1 mph - N/A   Overcast
7:35 PM 17.6 °F 6.4 °F 8.6 °F 68% 29.85 in 10.0 mi WNW 9.2 mph - N/A   Overcast
7:55 PM 17.6 °F 10.7 °F 6.8 °F 63% 29.85 in 10.0 mi WNW 4.6 mph - N/A   Overcast
8:15 PM 17.6 °F 9.3 °F 6.8 °F 63% 29.85 in 10.0 mi WNW 5.8 mph - N/A   Overcast
8:35 PM 17.6 °F 9.3 °F 6.8 °F 63% 29.84 in 10.0 mi WNW 5.8 mph - N/A   Overcast
8:55 PM 17.6 °F 9.3 °F 6.8 °F 63% 29.83 in 10.0 mi WNW 5.8 mph - N/A   Overcast
9:15 PM 14.0 °F 8.2 °F 6.8 °F 73% 29.83 in 10.0 mi West 3.5 mph - N/A   Mostly Cloudy
9:55 PM 14.0 °F - 6.8 °F 73% 29.82 in 10.0 mi Calm Calm - N/A   Clear
10:15 PM 14.0 °F - 5.0 °F 67% 29.82 in 10.0 mi Calm Calm - N/A   Clear
10:35 PM 12.2 °F - 5.0 °F 73% 29.82 in 10.0 mi Calm Calm - N/A   Mostly Cloudy
10:55 PM 14.0 °F - 6.8 °F 73% 29.81 in 10.0 mi Calm Calm - N/A   Overcast
11:15 PM 14.0 °F - 6.8 °F 73% 29.80 in 10.0 mi Calm Calm - N/A   Overcast
11:35 PM 14.0 °F - 6.8 °F 73% 29.80 in 10.0 mi Calm Calm - N/A   Overcast
11:55 PM 14.0 °F - 8.6 °F 79% 29.79 in 10.0 mi Calm Calm - N/A   Overcast